When you browse on this site, cookies collect data to enhance your experience and personalize the content and advertising you see.
Visit our Privacy Policy to learn more. By continuing to use the site, you agree to this use of cookies and data.
  • In Czech Republic
  • List of Countries
  • For 7 days
  • Water Temperature
  • Satellite Maps
  • Weather Map
  • Weather Widgets
  • user-avatar
    Login

    Hourly Weather Sveti Vlas

    Today, 22 January, Tuesday

    Time Temperature Precipitation Wind Pressure Humidity
    00:00 -1°C° 0 mm 4 mps 760 mmHg 83%
    01:00 +1°C° 0 mm 3 mps 760 mmHg 84%
    02:00 0°C° 0 mm 3 mps 760 mmHg 84%
    03:00 0°C° 0 mm 3 mps 760 mmHg 84%
    04:00 0°C° 0 mm 3 mps 760 mmHg 85%
    05:00 +1°C° 0 mm 3 mps 759 mmHg 85%
    06:00 +1°C° 0 mm 3 mps 759 mmHg 85%
    07:00 +1°C° 0 mm 3 mps 759 mmHg 85%
    08:00 0°C° 0 mm 4 mps 759 mmHg 84%
    09:00 +1°C° 0 mm 4 mps 759 mmHg 83%
    10:00 +1°C° 0 mm 4 mps 758 mmHg 82%
    11:00 +3°C° 0 mm 4 mps 758 mmHg 80%
    12:00 +3°C° 0 mm 4 mps 757 mmHg 81%
    13:00 +3°C° 0 mm 4 mps 757 mmHg 82%
    14:00 +4°C° 0 mm 4 mps 756 mmHg 84%
    15:00 +4°C° 0 mm 4 mps 756 mmHg 85%
    16:00 +3°C° 0 mm 5 mps 755 mmHg 87%
    17:00 +3°C° 0 mm 5 mps 755 mmHg 89%
    18:00 +3°C° 0 mm 5 mps 754 mmHg 89%
    19:00 +5°C° 0 mm 5 mps 753 mmHg 90%
    20:00 +4°C° 0 mm 6 mps 753 mmHg 91%
    21:00 +4°C° 0 mm 6 mps 753 mmHg 91%
    22:00 +4°C° 0 mm 6 mps 752 mmHg 91%
    23:00 +4°C° 0 mm 6 mps 752 mmHg 91%

    Tomorrow, 23 January, Wednesday

    Time Temperature Precipitation Wind Pressure Humidity
    00:00 +4°C° 0 mm 6 mps 751 mmHg 92%
    01:00 +5°C° 0 mm 6 mps 750 mmHg 93%
    02:00 +5°C° 0 mm 6 mps 750 mmHg 94%
    03:00 +5°C° 2.3 mm 6 mps 749 mmHg 95%
    04:00 +6°C° 2.3 mm 5 mps 748 mmHg 96%
    05:00 +5°C° 2.3 mm 5 mps 748 mmHg 97%
    06:00 +6°C° 0.5 mm 5 mps 747 mmHg 95%
    07:00 +6°C° 0.5 mm 5 mps 747 mmHg 93%
    08:00 +7°C° 0.5 mm 5 mps 747 mmHg 91%
    09:00 +8°C° 0 mm 6 mps 747 mmHg 86%
    10:00 +10°C° 0 mm 7 mps 747 mmHg 81%
    11:00 +11°C° 0 mm 7 mps 747 mmHg 77%
    12:00 +12°C° 0 mm 7 mps 747 mmHg 73%
    13:00 +12°C° 0 mm 7 mps 746 mmHg 70%
    14:00 +14°C° 0 mm 6 mps 746 mmHg 67%
    15:00 +13°C° 0.1 mm 6 mps 746 mmHg 71%
    16:00 +11°C° 0.1 mm 6 mps 746 mmHg 75%
    17:00 +10°C° 0.1 mm 5 mps 746 mmHg 78%
    18:00 +10°C° 0.1 mm 5 mps 746 mmHg 81%
    19:00 +9°C° 0.1 mm 6 mps 746 mmHg 84%
    20:00 +9°C° 0.1 mm 6 mps 746 mmHg 86%
    21:00 +9°C° 0.1 mm 6 mps 746 mmHg 87%
    22:00 +8°C° 0.1 mm 6 mps 746 mmHg 88%
    23:00 +8°C° 0.1 mm 5 mps 746 mmHg 89%

    Day after tomorrow, 24 January, Thursday

    Time Temperature Precipitation Wind Pressure Humidity
    00:00 +8°C° 0.5 mm 5 mps 746 mmHg 91%
    01:00 +8°C° 0.5 mm 5 mps 745 mmHg 92%
    02:00 +8°C° 0.5 mm 5 mps 745 mmHg 93%
    03:00 +8°C° 0.1 mm 5 mps 745 mmHg 93%
    04:00 +8°C° 0.1 mm 5 mps 744 mmHg 94%
    05:00 +8°C° 0.1 mm 6 mps 744 mmHg 95%
    06:00 +8°C° 0 mm 6 mps 743 mmHg 93%
    07:00 +8°C° 0 mm 6 mps 743 mmHg 92%
    08:00 +8°C° 0 mm 6 mps 743 mmHg 91%
    09:00 +8°C° 0 mm 6 mps 743 mmHg 89%
    10:00 +8°C° 0 mm 5 mps 743 mmHg 87%
    11:00 +9°C° 0 mm 5 mps 742 mmHg 85%
    12:00 +8°C° 0.8 mm 4 mps 742 mmHg 87%
    13:00 +9°C° 0.8 mm 3 mps 741 mmHg 89%
    14:00 +9°C° 0.8 mm 2 mps 741 mmHg 91%
    15:00 +9°C° 0.6 mm 2 mps 741 mmHg 91%
    16:00 +9°C° 0.6 mm 3 mps 741 mmHg 92%
    17:00 +8°C° 0.6 mm 3 mps 741 mmHg 92%
    18:00 +8°C° 0.1 mm 3 mps 741 mmHg 92%
    19:00 +8°C° 0.1 mm 3 mps 741 mmHg 91%
    20:00 +8°C° 0.1 mm 3 mps 741 mmHg 91%
    21:00 +8°C° 0.3 mm 3 mps 741 mmHg 91%
    22:00 +7°C° 0.3 mm 4 mps 742 mmHg 90%
    23:00 +8°C° 0.3 mm 4 mps 742 mmHg 90%

    25 January, Friday

    Time Temperature Precipitation Wind Pressure Humidity
    00:00 +8°C° 0.4 mm 5 mps 742 mmHg 91%
    01:00 +8°C° 0.4 mm 5 mps 742 mmHg 93%
    02:00 +8°C° 0.4 mm 5 mps 742 mmHg 94%
    03:00 +8°C° 0.4 mm 5 mps 742 mmHg 91%
    04:00 +8°C° 0.4 mm 5 mps 742 mmHg 89%
    05:00 +8°C° 0.4 mm 5 mps 742 mmHg 87%
    06:00 +8°C° 0 mm 5 mps 742 mmHg 88%
    07:00 +8°C° 0 mm 5 mps 743 mmHg 89%
    08:00 +8°C° 0 mm 5 mps 743 mmHg 90%
    09:00 +8°C° 0.2 mm 5 mps 744 mmHg 88%
    10:00 +8°C° 0.2 mm 5 mps 744 mmHg 87%
    11:00 +9°C° 0.2 mm 5 mps 744 mmHg 86%
    12:00 +10°C° 0 mm 6 mps 744 mmHg 80%
    13:00 +11°C° 0 mm 6 mps 743 mmHg 75%
    14:00 +11°C° 0 mm 7 mps 743 mmHg 69%
    15:00 +10°C° 0.2 mm 7 mps 743 mmHg 74%
    16:00 +9°C° 0.2 mm 7 mps 742 mmHg 79%
    17:00 +8°C° 0.2 mm 7 mps 742 mmHg 83%
    18:00 +8°C° 0.8 mm 7 mps 742 mmHg 85%
    19:00 +8°C° 0.8 mm 7 mps 742 mmHg 86%
    20:00 +8°C° 0.8 mm 7 mps 742 mmHg 88%
    21:00 +8°C° 0.4 mm 7 mps 741 mmHg 87%
    22:00 +9°C° 0.4 mm 7 mps 741 mmHg 87%
    23:00 +9°C° 0.4 mm 7 mps 741 mmHg 86%

    26 January, Saturday

    Time Temperature Precipitation Wind Pressure Humidity
    00:00 +8°C° 0 mm 6 mps 741 mmHg 88%
    01:00 +8°C° 0 mm 4 mps 741 mmHg 90%
    02:00 +8°C° 0 mm 3 mps 741 mmHg 92%
    03:00 +8°C° 0 mm 3 mps 741 mmHg 91%
    04:00 +7°C° 0 mm 3 mps 741 mmHg 91%
    05:00 +7°C° 0 mm 2 mps 741 mmHg 90%
    06:00 +7°C° 0 mm 3 mps 741 mmHg 90%
    07:00 +7°C° 0 mm 3 mps 741 mmHg 90%
    08:00 +7°C° 0 mm 3 mps 741 mmHg 90%
    09:00 +8°C° 0 mm 3 mps 741 mmHg 85%
    10:00 +9°C° 0 mm 3 mps 742 mmHg 79%
    11:00 +11°C° 0 mm 3 mps 742 mmHg 74%
    12:00 +11°C° 0 mm 3 mps 742 mmHg 70%
    13:00 +11°C° 0 mm 3 mps 741 mmHg 67%
    14:00 +12°C° 0 mm 3 mps 741 mmHg 64%
    15:00 +11°C° 0.1 mm 3 mps 741 mmHg 69%
    16:00 +10°C° 0.1 mm 3 mps 741 mmHg 75%
    17:00 +9°C° 0.1 mm 3 mps 741 mmHg 81%
    18:00 +8°C° 1.9 mm 4 mps 742 mmHg 85%
    19:00 +8°C° 1.9 mm 4 mps 742 mmHg 90%
    20:00 +7°C° 1.9 mm 4 mps 742 mmHg 95%
    21:00 +7°C° 0.2 mm 4 mps 742 mmHg 95%
    22:00 +8°C° 0.2 mm 3 mps 743 mmHg 95%
    23:00 +8°C° 0.2 mm 3 mps 743 mmHg 96%

    27 January, Sunday

    Time Temperature Precipitation Wind Pressure Humidity
    00:00 +8°C° 0 mm 3 mps 743 mmHg 96%
    01:00 +8°C° 0 mm 3 mps 743 mmHg 96%
    02:00 +8°C° 0 mm 3 mps 743 mmHg 96%
    03:00 +8°C° 0 mm 3 mps 743 mmHg 95%
    04:00 +7°C° 0 mm 2 mps 743 mmHg 94%
    05:00 +7°C° 0 mm 2 mps 743 mmHg 94%
    06:00 +7°C° 0 mm 2 mps 743 mmHg 94%
    07:00 +7°C° 0 mm 2 mps 744 mmHg 95%
    08:00 +7°C° 0 mm 2 mps 744 mmHg 95%
    09:00 +7°C° 0 mm 2 mps 744 mmHg 93%
    10:00 +8°C° 0 mm 2 mps 745 mmHg 91%
    11:00 +8°C° 0 mm 3 mps 745 mmHg 89%
    12:00 +8°C° 0 mm 3 mps 745 mmHg 89%
    13:00 +7°C° 0 mm 4 mps 745 mmHg 88%
    14:00 +8°C° 0 mm 5 mps 745 mmHg 88%
    15:00 +7°C° 0.1 mm 5 mps 745 mmHg 89%
    16:00 +6°C° 0.1 mm 5 mps 746 mmHg 91%
    17:00 +5°C° 0.1 mm 6 mps 746 mmHg 92%
    18:00 +5°C° 0.2 mm 6 mps 746 mmHg 92%
    19:00 +4°C° 0.2 mm 6 mps 747 mmHg 92%
    20:00 +4°C° 0.2 mm 6 mps 747 mmHg 91%
    21:00 +4°C° 0.3 mm 6 mps 748 mmHg 91%
    22:00 +4°C° 0.3 mm 6 mps 748 mmHg 90%
    23:00 +4°C° 0.3 mm 6 mps 749 mmHg 90%
    Show more